Location: Cañada de la Miga
(34.7595°N, 106.2317°W)
Time: 21:30:09
(UTC+00:00)

Vanguard 2 Rocket - Visible Passes

Search period start: 06 December 2021 00:00
Search period end: 16 December 2021 00:00
Orbit: 555 x 3324 km, 32.9° (Epoch: 06 December)

Date Brightness Start Highest point End Pass type
(mag) Time Alt. Az. Time Alt. Az. Time Alt. Az.
06 Dec 7.3 01:08:19 10° WSW 01:13:45 72° SSE 01:19:45 22° E visible
06 Dec 8.3 03:20:20 10° W 03:25:32 54° WSW 03:25:32 54° WSW visible
07 Dec 7.2 00:09:29 10° WSW 00:14:06 56° SSE 00:21:34 10° E visible
07 Dec 7.6 02:21:12 10° W 02:27:35 79° S 02:29:03 65° ESE visible
07 Dec 9.8 04:33:35 10° W 04:34:51 16° W 04:34:51 16° W visible
08 Dec 7.2 01:22:11 10° W 01:27:35 78° S 01:32:37 27° E visible
08 Dec 8.7 03:34:15 10° W 03:38:24 41° WSW 03:38:24 41° WSW visible
09 Dec 7.0 00:23:14 10° WSW 00:27:52 70° S 00:35:26 10° E visible
09 Dec 7.6 02:35:06 10° W 02:41:27 72° S 02:42:00 70° SSE visible
09 Dec 10.1 04:47:42 10° W 04:47:47 10° W 04:47:47 10° W visible
10 Dec 7.2 01:36:05 10° W 01:41:28 76° S 01:45:38 32° ESE visible
10 Dec 9.0 03:48:15 10° W 03:51:25 30° WSW 03:51:25 30° WSW visible
11 Dec 6.9 00:37:05 10° W 00:41:43 76° S 00:49:17 10° E visible
11 Dec 7.8 02:49:03 10° W 02:55:06 59° SSW 02:55:06 59° SSW visible
12 Dec 7.3 01:50:00 10° W 01:55:19 67° S 01:58:51 35° ESE visible
12 Dec 9.4 04:02:26 10° W 04:04:38 21° WSW 04:04:38 21° WSW visible
13 Dec 6.9 00:50:59 10° W 00:55:36 72° S 01:02:39 11° ESE visible
13 Dec 8.3 03:03:06 10° W 03:08:27 44° SSW 03:08:27 44° SSW visible
14 Dec 7.7 02:03:57 10° W 02:09:11 52° SSW 02:12:20 33° SE visible
14 Dec 9.8 04:17:02 10° WSW 04:18:09 14° WSW 04:18:09 14° WSW visible
15 Dec 7.1 01:04:53 10° W 01:09:27 60° S 01:16:18 11° ESE visible
15 Dec 8.8 03:17:23 10° W 03:22:08 30° SSW 03:22:08 30° SSW visible
